Вернуться в каталог

STARLINK-31333

АктивенСвязьVLEO
NORAD 58971·PAYLOAD·🇺🇸 United States

Запущен Feb 15, 2024 с Vandenberg Space Force Base

Loading…

Ближайшие Пролёты (ближайшие 24 часа)

TLE

СвежийSource: CelesTrak SupGP

Эпоха: Sep 15, 2026, 01:52 UTC

1 58971C 24031G   26258.07826389  .00062974  00000+0  18611-2 0  2580
2 58971  53.1577 122.7032 0001410  73.0852 187.2655 15.34349566    19

Отслеживайте STARLINK-31333 в реальном времени с AllMySat

Download on the App Store